Time,TemperatureF,DewpointF,PressureIn,WindDirection,WindDirectionDegrees,WindSpeedMPH,WindSpeedGustMPH,Humidity,HourlyPrecipIn,Conditions,Clouds,dailyrainin,SoftwareType,DateUTC
2013-07-07 00:01:00,81.5,74.7,30.09,ESE,107,0.0,0.0,80,0.00,,,0.00,Wunderground v.1.15,2013-07-07 04:01:00,
2013-07-07 00:02:00,81.5,74.7,30.09,ESE,107,0.0,0.0,80,0.00,,,0.00,Wunderground v.1.15,2013-07-07 04:02:00,
2013-07-07 00:03:00,81.5,74.7,30.09,ESE,107,0.0,0.0,80,0.00,,,0.00,Wunderground v.1.15,2013-07-07 04:03:00,
2013-07-07 00:07:00,81.5,75.1,30.08,ESE,107,0.0,0.0,81,0.00,,,0.00,Wunderground v.1.15,2013-07-07 04:07:00,
2013-07-07 00:08:00,81.4,75.0,30.08,ESE,107,0.0,0.0,81,0.00,,,0.00,Wunderground v.1.15,2013-07-07 04:08:00,
2013-07-07 00:14:00,81.3,74.9,30.08,ESE,107,0.0,0.0,81,0.00,,,0.00,Wunderground v.1.15,2013-07-07 04:14:00,
2013-07-07 00:20:00,81.2,74.8,30.08,ESE,107,0.0,0.0,81,0.00,,,0.00,Wunderground v.1.15,2013-07-07 04:20:00,
2013-07-07 00:26:00,81.0,74.6,30.08,ESE,107,0.0,0.0,81,0.00,,,0.00,Wunderground v.1.15,2013-07-07 04:26:00,
2013-07-07 00:31:00,80.9,74.9,30.08,ESE,107,0.0,0.0,82,0.00,,,0.00,Wunderground v.1.15,2013-07-07 04:31:00,
2013-07-07 00:36:00,80.7,74.7,30.08,ESE,117,0.0,1.0,82,0.00,,,0.00,Wunderground v.1.15,2013-07-07 04:36:00,
2013-07-07 00:42:00,80.6,74.6,30.08,ESE,117,0.0,0.0,82,0.00,,,0.00,Wunderground v.1.15,2013-07-07 04:42:00,
2013-07-07 00:48:00,80.4,74.8,30.08,ESE,117,0.0,0.0,83,0.00,,,0.00,Wunderground v.1.15,2013-07-07 04:48:00,
2013-07-07 00:53:00,80.3,74.7,30.08,ESE,117,0.0,0.0,83,0.00,,,0.00,Wunderground v.1.15,2013-07-07 04:53:00,
2013-07-07 00:58:00,80.2,74.6,30.08,ESE,117,0.0,0.0,83,0.00,,,0.00,Wunderground v.1.15,2013-07-07 04:58:00,
2013-07-07 01:04:00,80.0,74.7,30.08,ESE,117,0.0,0.0,84,0.00,,,0.00,Wunderground v.1.15,2013-07-07 05:04:00,
2013-07-07 01:10:00,79.8,74.5,30.08,ESE,117,0.0,0.0,84,0.00,,,0.00,Wunderground v.1.15,2013-07-07 05:10:00,
2013-07-07 01:16:00,79.6,74.3,30.07,ESE,117,0.0,0.0,84,0.00,,,0.00,Wunderground v.1.15,2013-07-07 05:16:00,
2013-07-07 01:22:00,79.4,74.5,30.08,ESE,117,0.0,0.0,85,0.00,,,0.00,Wunderground v.1.15,2013-07-07 05:22:00,
2013-07-07 01:28:00,79.2,74.3,30.08,ESE,117,0.0,0.0,85,0.00,,,0.00,Wunderground v.1.15,2013-07-07 05:28:00,
2013-07-07 01:34:00,79.0,74.1,30.08,ESE,117,0.0,0.0,85,0.00,,,0.00,Wunderground v.1.15,2013-07-07 05:34:00,
2013-07-07 01:40:00,78.9,74.0,30.08,ESE,117,0.0,0.0,85,0.00,,,0.00,Wunderground v.1.15,2013-07-07 05:40:00,
2013-07-07 01:45:00,78.8,74.3,30.08,ESE,117,0.0,0.0,86,0.00,,,0.00,Wunderground v.1.15,2013-07-07 05:45:00,
2013-07-07 01:50:00,78.6,74.1,30.07,ESE,117,0.0,0.0,86,0.00,,,0.00,Wunderground v.1.15,2013-07-07 05:50:00,
2013-07-07 01:55:00,78.6,74.1,30.07,ESE,117,0.0,0.0,86,0.00,,,0.00,Wunderground v.1.15,2013-07-07 05:55:00,
2013-07-07 02:00:00,78.5,74.0,30.07,ESE,117,0.0,0.0,86,0.00,,,0.00,Wunderground v.1.15,2013-07-07 06:00:00,
2013-07-07 02:05:00,78.4,73.9,30.07,ESE,117,0.0,0.0,86,0.00,,,0.00,Wunderground v.1.15,2013-07-07 06:05:00,
2013-07-07 02:10:00,78.3,74.1,30.08,ESE,117,0.0,0.0,87,0.00,,,0.00,Wunderground v.1.15,2013-07-07 06:10:00,
2013-07-07 02:15:00,78.2,74.0,30.07,ESE,117,0.0,0.0,87,0.00,,,0.00,Wunderground v.1.15,2013-07-07 06:15:00,
2013-07-07 02:20:00,78.2,74.0,30.07,ESE,117,0.0,0.0,87,0.00,,,0.00,Wunderground v.1.15,2013-07-07 06:20:00,
2013-07-07 02:25:00,78.1,73.9,30.07,ESE,117,0.0,0.0,87,0.00,,,0.00,Wunderground v.1.15,2013-07-07 06:25:00,
2013-07-07 02:30:00,78.0,73.8,30.06,ESE,117,0.0,0.0,87,0.00,,,0.00,Wunderground v.1.15,2013-07-07 06:30:00,
2013-07-07 02:35:00,77.9,73.7,30.07,ESE,117,0.0,0.0,87,0.00,,,0.00,Wunderground v.1.15,2013-07-07 06:35:00,
2013-07-07 02:40:00,77.8,73.6,30.06,ESE,117,0.0,0.0,87,0.00,,,0.00,Wunderground v.1.15,2013-07-07 06:40:00,
2013-07-07 02:45:00,77.8,74.0,30.07,ESE,117,0.0,0.0,88,0.00,,,0.00,Wunderground v.1.15,2013-07-07 06:45:00,
2013-07-07 02:50:00,77.7,73.9,30.06,ESE,117,0.0,0.0,88,0.00,,,0.00,Wunderground v.1.15,2013-07-07 06:50:00,
2013-07-07 02:55:00,77.6,73.8,30.06,ESE,117,0.0,0.0,88,0.00,,,0.00,Wunderground v.1.15,2013-07-07 06:55:00,
2013-07-07 03:00:00,77.6,73.8,30.06,ESE,117,0.0,0.0,88,0.00,,,0.00,Wunderground v.1.15,2013-07-07 07:00:00,
2013-07-07 03:05:00,77.5,73.7,30.07,ESE,117,0.0,0.0,88,0.00,,,0.00,Wunderground v.1.15,2013-07-07 07:05:00,
2013-07-07 03:10:00,77.5,74.0,30.07,ESE,117,0.0,1.0,89,0.00,,,0.00,Wunderground v.1.15,2013-07-07 07:10:00,
2013-07-07 03:15:00,77.4,73.9,30.06,ESE,117,0.0,1.0,89,0.00,,,0.00,Wunderground v.1.15,2013-07-07 07:15:00,
2013-07-07 03:20:00,77.4,73.9,30.06,ESE,117,0.0,0.0,89,0.00,,,0.00,Wunderground v.1.15,2013-07-07 07:20:00,
2013-07-07 03:25:00,77.4,73.9,30.06,ESE,117,0.0,1.0,89,0.00,,,0.00,Wunderground v.1.15,2013-07-07 07:25:00,
2013-07-07 03:30:00,77.3,73.8,30.05,ESE,117,0.0,0.0,89,0.00,,,0.00,Wunderground v.1.15,2013-07-07 07:30:00,
2013-07-07 03:35:00,77.3,73.8,30.05,ESE,117,0.0,0.0,89,0.00,,,0.00,Wunderground v.1.15,2013-07-07 07:35:00,
2013-07-07 03:40:00,77.2,73.7,30.06,ESE,117,0.0,0.0,89,0.00,,,0.00,Wunderground v.1.15,2013-07-07 07:40:00,
2013-07-07 03:46:00,77.2,73.7,30.05,ESE,117,0.0,0.0,89,0.00,,,0.00,Wunderground v.1.15,2013-07-07 07:46:00,
2013-07-07 03:51:00,77.1,73.6,30.05,ESE,117,0.0,0.0,89,0.00,,,0.00,Wunderground v.1.15,2013-07-07 07:51:00,
2013-07-07 03:56:00,77.1,73.6,30.05,ESE,117,0.0,0.0,89,0.00,,,0.00,Wunderground v.1.15,2013-07-07 07:56:00,
2013-07-07 04:01:00,77.0,73.5,30.05,ESE,117,0.0,0.0,89,0.00,,,0.00,Wunderground v.1.15,2013-07-07 08:01:00,
2013-07-07 04:06:00,77.0,73.5,30.05,ESE,117,0.0,0.0,89,0.00,,,0.00,Wunderground v.1.15,2013-07-07 08:06:00,
2013-07-07 04:11:00,76.9,73.4,30.05,ESE,117,0.0,0.0,89,0.00,,,0.00,Wunderground v.1.15,2013-07-07 08:11:00,
2013-07-07 04:16:00,76.9,73.4,30.04,ESE,117,0.0,1.0,89,0.00,,,0.00,Wunderground v.1.15,2013-07-07 08:16:00,
2013-07-07 04:21:00,76.7,73.5,30.05,ESE,117,0.0,1.0,90,0.00,,,0.00,Wunderground v.1.15,2013-07-07 08:21:00,
2013-07-07 04:26:00,76.8,73.6,30.04,ESE,117,0.0,2.0,90,0.00,,,0.00,Wunderground v.1.15,2013-07-07 08:26:00,
2013-07-07 04:31:00,76.7,73.5,30.05,ESE,117,0.0,0.0,90,0.00,,,0.00,Wunderground v.1.15,2013-07-07 08:31:00,
2013-07-07 04:36:00,76.7,73.5,30.05,ESE,117,0.0,0.0,90,0.00,,,0.00,Wunderground v.1.15,2013-07-07 08:36:00,
2013-07-07 04:41:00,76.7,73.5,30.05,ESE,115,0.0,2.0,90,0.00,,,0.00,Wunderground v.1.15,2013-07-07 08:41:00,
2013-07-07 04:46:00,76.6,73.4,30.05,ESE,115,0.0,2.0,90,0.00,,,0.00,Wunderground v.1.15,2013-07-07 08:46:00,
2013-07-07 04:51:00,76.6,73.4,30.05,ESE,115,0.0,0.0,90,0.00,,,0.00,Wunderground v.1.15,2013-07-07 08:51:00,
2013-07-07 04:56:00,76.6,73.4,30.05,ESE,115,0.0,0.0,90,0.00,,,0.00,Wunderground v.1.15,2013-07-07 08:56:00,
2013-07-07 05:01:00,76.5,73.3,30.05,ESE,115,0.0,0.0,90,0.00,,,0.00,Wunderground v.1.15,2013-07-07 09:01:00,
2013-07-07 05:06:00,76.5,73.3,30.05,ESE,115,0.0,1.0,90,0.00,,,0.00,Wunderground v.1.15,2013-07-07 09:06:00,
2013-07-07 05:11:00,76.5,73.3,30.04,ESE,115,0.0,1.0,90,0.00,,,0.00,Wunderground v.1.15,2013-07-07 09:11:00,
2013-07-07 05:16:00,76.5,73.3,30.04,ESE,115,0.0,1.0,90,0.00,,,0.00,Wunderground v.1.15,2013-07-07 09:16:00,
2013-07-07 05:21:00,76.5,73.3,30.04,ESE,115,0.0,0.0,90,0.00,,,0.00,Wunderground v.1.15,2013-07-07 09:21:00,
2013-07-07 05:26:00,76.4,73.2,30.04,ESE,115,0.0,0.0,90,0.00,,,0.00,Wunderground v.1.15,2013-07-07 09:26:00,
2013-07-07 05:31:00,76.4,73.2,30.04,ESE,115,0.0,1.0,90,0.00,,,0.00,Wunderground v.1.15,2013-07-07 09:31:00,
2013-07-07 05:36:00,76.4,73.2,30.04,ESE,115,0.0,1.0,90,0.00,,,0.00,Wunderground v.1.15,2013-07-07 09:36:00,
2013-07-07 05:41:00,76.4,73.2,30.04,ESE,115,0.0,0.0,90,0.00,,,0.00,Wunderground v.1.15,2013-07-07 09:41:00,
2013-07-07 05:46:00,76.3,73.1,30.04,ESE,115,0.0,0.0,90,0.00,,,0.00,Wunderground v.1.15,2013-07-07 09:46:00,
2013-07-07 05:51:00,76.3,73.1,30.04,ESE,115,0.0,0.0,90,0.00,,,0.00,Wunderground v.1.15,2013-07-07 09:51:00,
2013-07-07 05:56:00,76.2,73.1,30.04,ESE,115,0.0,0.0,90,0.00,,,0.00,Wunderground v.1.15,2013-07-07 09:56:00,
2013-07-07 06:02:00,76.2,73.1,30.04,ESE,115,0.0,0.0,90,0.00,,,0.00,Wunderground v.1.15,2013-07-07 10:02:00,
2013-07-07 06:07:00,76.1,73.0,30.04,ESE,115,0.0,0.0,90,0.00,,,0.00,Wunderground v.1.15,2013-07-07 10:07:00,
2013-07-07 06:12:00,76.1,73.0,30.04,ESE,115,0.0,0.0,90,0.00,,,0.00,Wunderground v.1.15,2013-07-07 10:12:00,
2013-07-07 06:17:00,76.0,72.9,30.04,ESE,115,0.0,1.0,90,0.00,,,0.00,Wunderground v.1.15,2013-07-07 10:17:00,
2013-07-07 06:22:00,76.0,72.9,30.04,ESE,115,0.0,1.0,90,0.00,,,0.00,Wunderground v.1.15,2013-07-07 10:22:00,
2013-07-07 06:27:00,76.0,72.9,30.04,ESE,115,0.0,1.0,90,0.00,,,0.00,Wunderground v.1.15,2013-07-07 10:27:00,
2013-07-07 06:32:00,75.9,72.8,30.05,ESE,115,0.0,0.0,90,0.00,,,0.00,Wunderground v.1.15,2013-07-07 10:32:00,
2013-07-07 06:37:00,75.9,73.1,30.05,ESE,115,0.0,2.0,91,0.00,,,0.00,Wunderground v.1.15,2013-07-07 10:37:00,
2013-07-07 06:42:00,75.9,73.1,30.05,ESE,115,0.0,0.0,91,0.00,,,0.00,Wunderground v.1.15,2013-07-07 10:42:00,
2013-07-07 06:47:00,75.8,73.0,30.05,ESE,115,0.0,0.0,91,0.00,,,0.00,Wunderground v.1.15,2013-07-07 10:47:00,
2013-07-07 06:52:00,75.9,73.1,30.06,ESE,115,0.0,1.0,91,0.00,,,0.00,Wunderground v.1.15,2013-07-07 10:52:00,
2013-07-07 06:57:00,75.9,73.1,30.06,ESE,115,0.0,1.0,91,0.00,,,0.00,Wunderground v.1.15,2013-07-07 10:57:00,
2013-07-07 07:02:00,75.9,73.1,30.06,ESE,109,0.0,0.0,91,0.00,,,0.00,Wunderground v.1.15,2013-07-07 11:02:00,
2013-07-07 07:07:00,75.9,73.1,30.06,ESE,109,0.0,1.0,91,0.00,,,0.00,Wunderground v.1.15,2013-07-07 11:07:00,
2013-07-07 07:12:00,76.0,73.2,30.06,ESE,109,0.0,0.0,91,0.00,,,0.00,Wunderground v.1.15,2013-07-07 11:12:00,
2013-07-07 07:17:00,76.1,73.3,30.06,ESE,109,0.0,0.0,91,0.00,,,0.00,Wunderground v.1.15,2013-07-07 11:17:00,
2013-07-07 07:22:00,76.2,73.4,30.06,ESE,109,0.0,1.0,91,0.00,,,0.00,Wunderground v.1.15,2013-07-07 11:22:00,
2013-07-07 07:27:00,76.3,73.5,30.06,ESE,109,0.0,1.0,91,0.00,,,0.00,Wunderground v.1.15,2013-07-07 11:27:00,
2013-07-07 07:32:00,76.4,73.6,30.06,ESE,109,0.0,0.0,91,0.00,,,0.00,Wunderground v.1.15,2013-07-07 11:32:00,
2013-07-07 07:37:00,76.6,73.8,30.06,ESE,109,0.0,1.0,91,0.00,,,0.00,Wunderground v.1.15,2013-07-07 11:37:00,
2013-07-07 07:42:00,76.8,74.0,30.06,ESE,109,0.0,2.0,91,0.00,,,0.00,Wunderground v.1.15,2013-07-07 11:42:00,
2013-07-07 07:47:00,77.0,74.2,30.06,ESE,109,0.0,2.0,91,0.00,,,0.00,Wunderground v.1.15,2013-07-07 11:47:00,
2013-07-07 07:52:00,77.1,73.9,30.07,ESE,109,0.0,1.0,90,0.00,,,0.00,Wunderground v.1.15,2013-07-07 11:52:00,
2013-07-07 07:57:00,77.3,74.1,30.07,ESE,107,0.0,2.0,90,0.00,,,0.00,Wunderground v.1.15,2013-07-07 11:57:00,
2013-07-07 08:02:00,77.6,74.4,30.07,ESE,107,0.0,1.0,90,0.00,,,0.00,Wunderground v.1.15,2013-07-07 12:02:00,
2013-07-07 08:07:00,77.8,74.6,30.07,ESE,106,0.0,2.0,90,0.00,,,0.00,Wunderground v.1.15,2013-07-07 12:07:00,
2013-07-07 08:12:00,78.1,74.9,30.07,ESE,103,0.0,1.0,90,0.00,,,0.00,Wunderground v.1.15,2013-07-07 12:12:00,
2013-07-07 08:17:00,78.4,75.2,30.07,ENE,77,2.0,3.0,90,0.00,,,0.00,Wunderground v.1.15,2013-07-07 12:17:00,
2013-07-07 08:22:00,78.6,75.1,30.07,ENE,77,0.0,1.0,89,0.00,,,0.00,Wunderground v.1.15,2013-07-07 12:22:00,
2013-07-07 08:27:00,78.9,75.4,30.07,ENE,77,0.0,1.0,89,0.00,,,0.00,Wunderground v.1.15,2013-07-07 12:27:00,
2013-07-07 08:32:00,79.1,75.2,30.07,ENE,78,0.0,1.0,88,0.00,,,0.00,Wunderground v.1.15,2013-07-07 12:32:00,
2013-07-07 08:37:00,79.4,75.5,30.08,ENE,75,1.0,3.0,88,0.00,,,0.00,Wunderground v.1.15,2013-07-07 12:37:00,
2013-07-07 08:42:00,79.7,75.5,30.08,ENE,74,0.0,3.0,87,0.00,,,0.00,Wunderground v.1.15,2013-07-07 12:42:00,
2013-07-07 08:47:00,80.0,75.8,30.08,ENE,77,0.0,3.0,87,0.00,,,0.00,Wunderground v.1.15,2013-07-07 12:47:00,
2013-07-07 08:52:00,80.4,76.2,30.08,SSE,153,0.0,4.0,87,0.00,,,0.00,Wunderground v.1.15,2013-07-07 12:52:00,
2013-07-07 08:57:00,80.5,75.9,30.08,SE,139,0.0,4.0,86,0.00,,,0.00,Wunderground v.1.15,2013-07-07 12:57:00,
2013-07-07 09:02:00,80.9,76.3,30.08,ESE,122,0.0,2.0,86,0.00,,,0.00,Wunderground v.1.15,2013-07-07 13:02:00,
2013-07-07 09:07:00,81.2,76.3,30.08,East,90,0.0,6.0,85,0.00,,,0.00,Wunderground v.1.15,2013-07-07 13:07:00,
2013-07-07 09:12:00,81.3,76.4,30.08,East,101,1.0,3.0,85,0.00,,,0.00,Wunderground v.1.15,2013-07-07 13:12:00,
2013-07-07 09:17:00,81.4,76.5,30.08,ENE,74,0.0,7.0,85,0.00,,,0.00,Wunderground v.1.15,2013-07-07 13:17:00,
2013-07-07 09:23:00,81.5,76.2,30.09,ESE,117,2.0,6.0,84,0.00,,,0.00,Wunderground v.1.15,2013-07-07 13:23:00,
2013-07-07 09:28:00,81.6,76.3,30.08,ESE,106,0.0,6.0,84,0.00,,,0.00,Wunderground v.1.15,2013-07-07 13:28:00,
2013-07-07 09:33:00,81.9,76.6,30.08,NNE,33,0.0,3.0,84,0.00,,,0.00,Wunderground v.1.15,2013-07-07 13:33:00,
2013-07-07 09:38:00,82.1,76.8,30.09,ENE,73,0.0,6.0,84,0.00,,,0.00,Wunderground v.1.15,2013-07-07 13:38:00,
2013-07-07 09:43:00,82.5,77.2,30.08,SE,125,0.0,2.0,84,0.00,,,0.00,Wunderground v.1.15,2013-07-07 13:43:00,
2013-07-07 09:48:00,82.7,77.0,30.09,ENE,61,0.0,2.0,83,0.00,,,0.00,Wunderground v.1.15,2013-07-07 13:48:00,
2013-07-07 09:53:00,83.1,77.4,30.09,ESE,115,0.0,1.0,83,0.00,,,0.00,Wunderground v.1.15,2013-07-07 13:53:00,
2013-07-07 09:58:00,83.4,77.3,30.09,NNE,33,2.0,4.0,82,0.00,,,0.00,Wunderground v.1.15,2013-07-07 13:58:00,
2013-07-07 10:03:00,83.4,77.0,30.09,ESE,105,2.0,4.0,81,0.00,,,0.00,Wunderground v.1.15,2013-07-07 14:03:00,
2013-07-07 10:08:00,83.4,76.6,30.08,SE,125,5.0,6.0,80,0.00,,,0.00,Wunderground v.1.15,2013-07-07 14:08:00,
2013-07-07 10:13:00,83.6,76.8,30.09,NNE,17,0.0,4.0,80,0.00,,,0.00,Wunderground v.1.15,2013-07-07 14:13:00,
2013-07-07 10:18:00,84.1,77.3,30.09,ENE,75,0.0,6.0,80,0.00,,,0.00,Wunderground v.1.15,2013-07-07 14:18:00,
2013-07-07 10:23:00,84.4,77.2,30.09,SE,146,0.0,3.0,79,0.00,,,0.00,Wunderground v.1.15,2013-07-07 14:23:00,
2013-07-07 10:28:00,84.8,77.2,30.09,NE,40,0.0,5.0,78,0.00,,,0.00,Wunderground v.1.15,2013-07-07 14:28:00,
2013-07-07 10:33:00,84.7,76.7,30.09,SE,146,1.0,7.0,77,0.00,,,0.00,Wunderground v.1.15,2013-07-07 14:33:00,
2013-07-07 10:38:00,84.8,76.8,30.09,SE,125,0.0,7.0,77,0.00,,,0.00,Wunderground v.1.15,2013-07-07 14:38:00,
2013-07-07 10:43:00,85.0,76.6,30.09,East,86,0.0,5.0,76,0.00,,,0.00,Wunderground v.1.15,2013-07-07 14:43:00,
2013-07-07 10:48:00,84.9,76.5,30.09,SE,143,2.0,9.0,76,0.00,,,0.00,Wunderground v.1.15,2013-07-07 14:48:00,
2013-07-07 10:53:00,84.9,76.5,30.09,ESE,123,2.0,9.0,76,0.00,,,0.00,Wunderground v.1.15,2013-07-07 14:53:00,
2013-07-07 10:58:00,85.0,76.2,30.08,East,89,0.0,10.0,75,0.00,,,0.00,Wunderground v.1.15,2013-07-07 14:58:00,
2013-07-07 11:03:00,85.1,75.9,30.08,East,90,0.0,3.0,74,0.00,,,0.00,Wunderground v.1.15,2013-07-07 15:03:00,
2013-07-07 11:08:00,84.9,76.1,30.09,East,92,0.0,7.0,75,0.00,,,0.00,Wunderground v.1.15,2013-07-07 15:08:00,
2013-07-07 11:13:00,85.4,76.2,30.09,ESE,120,0.0,3.0,74,0.00,,,0.00,Wunderground v.1.15,2013-07-07 15:13:00,
2013-07-07 11:18:00,85.8,76.1,30.09,SSW,192,0.0,9.0,73,0.00,,,0.00,Wunderground v.1.15,2013-07-07 15:18:00,
2013-07-07 11:23:00,86.2,75.7,30.08,East,92,3.0,4.0,71,0.00,,,0.00,Wunderground v.1.15,2013-07-07 15:23:00,
2013-07-07 11:28:00,86.6,76.1,30.08,ESE,117,2.0,7.0,71,0.00,,,0.00,Wunderground v.1.15,2013-07-07 15:28:00,
2013-07-07 11:33:00,86.8,75.8,30.09,NE,52,0.0,5.0,70,0.00,,,0.00,Wunderground v.1.15,2013-07-07 15:33:00,
2013-07-07 11:38:00,86.5,76.4,30.08,ENE,67,0.0,8.0,72,0.00,,,0.00,Wunderground v.1.15,2013-07-07 15:38:00,
2013-07-07 11:43:00,87.3,76.3,30.08,NE,43,0.0,3.0,70,0.00,,,0.00,Wunderground v.1.15,2013-07-07 15:43:00,
2013-07-07 11:49:00,87.5,76.1,30.08,ENE,62,2.0,7.0,69,0.00,,,0.00,Wunderground v.1.15,2013-07-07 15:49:00,
2013-07-07 11:54:00,87.5,75.2,30.08,SE,132,0.0,3.0,67,0.00,,,0.00,Wunderground v.1.15,2013-07-07 15:54:00,
2013-07-07 11:59:00,87.6,76.6,30.08,ENE,76,1.0,6.0,70,0.00,,,0.00,Wunderground v.1.15,2013-07-07 15:59:00,
2013-07-07 12:04:00,87.8,75.9,30.08,East,88,0.0,7.0,68,0.00,,,0.00,Wunderground v.1.15,2013-07-07 16:04:00,
2013-07-07 12:09:00,87.7,75.4,30.08,ENE,59,1.0,7.0,67,0.00,,,0.00,Wunderground v.1.15,2013-07-07 16:09:00,
2013-07-07 12:14:00,87.6,75.7,30.08,ENE,64,0.0,4.0,68,0.00,,,0.00,Wunderground v.1.15,2013-07-07 16:14:00,
2013-07-07 12:19:00,88.0,75.2,30.08,NE,38,2.0,5.0,66,0.00,,,0.00,Wunderground v.1.15,2013-07-07 16:19:00,
2013-07-07 12:24:00,88.1,74.8,30.08,ENE,75,1.0,5.0,65,0.00,,,0.00,Wunderground v.1.15,2013-07-07 16:24:00,
2013-07-07 12:29:00,88.3,75.0,30.08,East,80,2.0,7.0,65,0.00,,,0.00,Wunderground v.1.15,2013-07-07 16:29:00,
2013-07-07 12:34:00,88.2,74.9,30.08,ENE,58,0.0,5.0,65,0.00,,,0.00,Wunderground v.1.15,2013-07-07 16:34:00,
2013-07-07 12:39:00,88.0,75.2,30.07,ENE,57,3.0,5.0,66,0.00,,,0.00,Wunderground v.1.15,2013-07-07 16:39:00,
2013-07-07 12:44:00,88.5,75.7,30.08,SE,126,7.0,7.0,66,0.00,,,0.00,Wunderground v.1.15,2013-07-07 16:44:00,
2013-07-07 12:49:00,88.6,75.3,30.08,East,83,1.0,7.0,65,0.00,,,0.00,Wunderground v.1.15,2013-07-07 16:49:00,
2013-07-07 12:54:00,89.0,75.7,30.07,ESE,105,0.0,5.0,65,0.00,,,0.00,Wunderground v.1.15,2013-07-07 16:54:00,
2013-07-07 12:59:00,89.0,75.7,30.07,East,101,0.0,7.0,65,0.00,,,0.00,Wunderground v.1.15,2013-07-07 16:59:00,
2013-07-07 13:04:00,89.0,75.7,30.07,NE,56,1.0,10.0,65,0.00,,,0.00,Wunderground v.1.15,2013-07-07 17:04:00,
2013-07-07 13:09:00,88.8,76.0,30.07,SE,126,5.0,10.0,66,0.00,,,0.00,Wunderground v.1.15,2013-07-07 17:09:00,
2013-07-07 13:14:00,88.9,75.1,30.07,ESE,121,0.0,9.0,64,0.00,,,0.00,Wunderground v.1.15,2013-07-07 17:14:00,
2013-07-07 13:19:00,88.6,74.4,30.06,East,80,1.0,9.0,63,0.00,,,0.00,Wunderground v.1.15,2013-07-07 17:19:00,
2013-07-07 13:24:00,88.8,74.6,30.06,NNE,14,0.0,4.0,63,0.00,,,0.00,Wunderground v.1.15,2013-07-07 17:24:00,
2013-07-07 13:29:00,89.3,75.5,30.06,ENE,74,2.0,4.0,64,0.00,,,0.00,Wunderground v.1.15,2013-07-07 17:29:00,
2013-07-07 13:34:00,89.9,75.6,30.06,ESE,115,0.0,9.0,63,0.00,,,0.00,Wunderground v.1.15,2013-07-07 17:34:00,
2013-07-07 13:39:00,90.1,74.8,30.06,ENE,76,3.0,9.0,61,0.00,,,0.00,Wunderground v.1.15,2013-07-07 17:39:00,
2013-07-07 13:44:00,89.9,75.1,30.06,NE,35,2.0,5.0,62,0.00,,,0.00,Wunderground v.1.15,2013-07-07 17:44:00,
2013-07-07 13:49:00,89.8,75.0,30.06,East,96,0.0,5.0,62,0.00,,,0.00,Wunderground v.1.15,2013-07-07 17:49:00,
2013-07-07 13:54:00,89.7,75.4,30.06,NNE,13,4.0,9.0,63,0.00,,,0.00,Wunderground v.1.15,2013-07-07 17:54:00,
2013-07-07 13:59:00,89.7,74.9,30.06,NNE,12,5.0,9.0,62,0.00,,,0.00,Wunderground v.1.15,2013-07-07 17:59:00,
2013-07-07 14:04:00,89.8,74.6,30.06,NE,49,0.0,6.0,61,0.00,,,0.00,Wunderground v.1.15,2013-07-07 18:04:00,
2013-07-07 14:09:00,89.8,74.6,30.05,SSE,161,5.0,7.0,61,0.00,,,0.00,Wunderground v.1.15,2013-07-07 18:09:00,
2013-07-07 14:14:00,89.6,74.4,30.05,East,82,2.0,5.0,61,0.00,,,0.00,Wunderground v.1.15,2013-07-07 18:14:00,
2013-07-07 14:19:00,89.9,73.7,30.05,East,95,1.0,7.0,59,0.00,,,0.00,Wunderground v.1.15,2013-07-07 18:19:00,
2013-07-07 14:24:00,90.2,74.9,30.05,East,91,0.0,4.0,61,0.00,,,0.00,Wunderground v.1.15,2013-07-07 18:24:00,
2013-07-07 14:29:00,90.6,74.3,30.05,SE,124,3.0,5.0,59,0.00,,,0.00,Wunderground v.1.15,2013-07-07 18:29:00,
2013-07-07 14:34:00,91.0,73.7,30.05,East,82,1.0,5.0,57,0.00,,,0.00,Wunderground v.1.15,2013-07-07 18:34:00,
2013-07-07 14:39:00,90.9,74.1,30.05,ENE,59,0.0,6.0,58,0.00,,,0.00,Wunderground v.1.15,2013-07-07 18:39:00,
2013-07-07 14:44:00,91.0,74.2,30.05,SE,136,0.0,7.0,58,0.00,,,0.00,Wunderground v.1.15,2013-07-07 18:44:00,
2013-07-07 14:49:00,91.1,74.3,30.04,ENE,57,3.0,7.0,58,0.00,,,0.00,Wunderground v.1.15,2013-07-07 18:49:00,
2013-07-07 14:54:00,91.0,75.2,30.04,SSE,148,4.0,4.0,60,0.00,,,0.00,Wunderground v.1.15,2013-07-07 18:54:00,
2013-07-07 14:59:00,90.9,74.1,30.04,NE,51,4.0,4.0,58,0.00,,,0.00,Wunderground v.1.15,2013-07-07 18:59:00,
2013-07-07 15:04:00,90.8,74.0,30.03,NE,41,0.0,2.0,58,0.00,,,0.00,Wunderground v.1.15,2013-07-07 19:04:00,
2013-07-07 15:09:00,90.8,74.5,30.04,SE,135,0.0,4.0,59,0.00,,,0.00,Wunderground v.1.15,2013-07-07 19:09:00,
2013-07-07 15:14:00,91.2,74.4,30.04,East,94,0.0,12.0,58,0.00,,,0.00,Wunderground v.1.15,2013-07-07 19:14:00,
2013-07-07 15:19:00,91.7,74.8,30.04,SE,124,1.0,12.0,58,0.00,,,0.00,Wunderground v.1.15,2013-07-07 19:19:00,
2013-07-07 15:24:00,91.4,74.5,30.04,ENE,64,1.0,5.0,58,0.00,,,0.00,Wunderground v.1.15,2013-07-07 19:24:00,
2013-07-07 15:29:00,91.1,74.8,30.03,ESE,121,0.0,6.0,59,0.00,,,0.00,Wunderground v.1.15,2013-07-07 19:29:00,
2013-07-07 15:34:00,91.4,75.6,30.03,NE,36,3.0,7.0,60,0.00,,,0.00,Wunderground v.1.15,2013-07-07 19:34:00,
2013-07-07 15:39:00,91.1,75.8,30.03,NE,48,1.0,7.0,61,0.00,,,0.00,Wunderground v.1.15,2013-07-07 19:39:00,
2013-07-07 15:44:00,90.6,75.3,30.03,ENE,65,0.0,3.0,61,0.00,,,0.00,Wunderground v.1.15,2013-07-07 19:44:00,
2013-07-07 15:49:00,90.5,75.7,30.03,SE,146,3.0,6.0,62,0.00,,,0.00,Wunderground v.1.15,2013-07-07 19:49:00,
2013-07-07 15:54:00,91.1,75.3,30.03,East,94,0.0,9.0,60,0.00,,,0.00,Wunderground v.1.15,2013-07-07 19:54:00,
2013-07-07 15:59:00,91.3,75.0,30.03,SE,146,6.0,9.0,59,0.00,,,0.00,Wunderground v.1.15,2013-07-07 19:59:00,
2013-07-07 16:04:00,91.7,75.3,30.02,East,92,0.0,7.0,59,0.00,,,0.00,Wunderground v.1.15,2013-07-07 20:04:00,
2013-07-07 16:09:00,91.7,74.8,30.02,SE,136,3.0,11.0,58,0.00,,,0.00,Wunderground v.1.15,2013-07-07 20:09:00,
2013-07-07 16:14:00,91.4,76.5,30.03,East,87,1.0,14.0,62,0.00,,,0.00,Wunderground v.1.15,2013-07-07 20:14:00,
2013-07-07 16:19:00,90.4,76.6,30.03,SSE,148,5.0,14.0,64,0.00,,,0.00,Wunderground v.1.15,2013-07-07 20:19:00,
2013-07-07 16:24:00,89.5,76.6,30.03,SE,132,5.0,7.0,66,0.00,,,0.00,Wunderground v.1.15,2013-07-07 20:24:00,
2013-07-07 16:29:00,88.8,76.9,30.02,SSE,163,2.0,9.0,68,0.00,,,0.00,Wunderground v.1.15,2013-07-07 20:29:00,
2013-07-07 16:34:00,88.8,76.4,30.02,South,172,6.0,7.0,67,0.00,,,0.00,Wunderground v.1.15,2013-07-07 20:34:00,
2013-07-07 16:39:00,89.0,76.2,30.02,ENE,70,0.0,7.0,66,0.00,,,0.00,Wunderground v.1.15,2013-07-07 20:39:00,
2013-07-07 16:44:00,89.3,76.0,30.02,East,92,2.0,5.0,65,0.00,,,0.00,Wunderground v.1.15,2013-07-07 20:44:00,
2013-07-07 16:49:00,89.7,75.9,30.02,NE,45,1.0,6.0,64,0.00,,,0.00,Wunderground v.1.15,2013-07-07 20:49:00,
2013-07-07 16:54:00,90.1,75.3,30.02,ENE,59,1.0,5.0,62,0.00,,,0.00,Wunderground v.1.15,2013-07-07 20:54:00,
2013-07-07 16:59:00,90.5,74.7,30.02,SE,129,4.0,10.0,60,0.00,,,0.00,Wunderground v.1.15,2013-07-07 20:59:00,
2013-07-07 17:05:00,90.7,74.4,30.01,ESE,105,0.0,10.0,59,0.00,,,0.00,Wunderground v.1.15,2013-07-07 21:05:00,
2013-07-07 17:10:00,90.8,75.0,30.02,ENE,62,2.0,3.0,60,0.00,,,0.00,Wunderground v.1.15,2013-07-07 21:10:00,
2013-07-07 17:15:00,90.9,74.6,30.01,East,92,0.0,7.0,59,0.00,,,0.00,Wunderground v.1.15,2013-07-07 21:15:00,
2013-07-07 17:20:00,90.8,75.0,30.01,SE,131,3.0,5.0,60,0.00,,,0.00,Wunderground v.1.15,2013-07-07 21:20:00,
2013-07-07 17:25:00,90.8,75.0,30.01,SE,128,0.0,9.0,60,0.00,,,0.00,Wunderground v.1.15,2013-07-07 21:25:00,
2013-07-07 17:30:00,89.9,76.1,30.01,NE,34,1.0,10.0,64,0.00,,,0.00,Wunderground v.1.15,2013-07-07 21:30:00,
2013-07-07 17:35:00,87.9,75.1,30.02,NNE,17,3.0,7.0,66,0.00,,,0.00,Wunderground v.1.15,2013-07-07 21:35:00,
2013-07-07 17:40:00,86.0,75.1,30.02,North,360,0.0,2.0,70,0.00,,,0.00,Wunderground v.1.15,2013-07-07 21:40:00,
2013-07-07 17:45:00,85.1,75.1,30.01,NE,37,0.0,2.0,72,0.00,,,0.00,Wunderground v.1.15,2013-07-07 21:45:00,
2013-07-07 17:50:00,84.4,75.2,30.01,NE,37,0.0,0.0,74,0.00,,,0.00,Wunderground v.1.15,2013-07-07 21:50:00,
2013-07-07 17:55:00,83.6,74.8,30.01,NE,37,0.0,3.0,75,0.00,,,0.00,Wunderground v.1.15,2013-07-07 21:55:00,
2013-07-07 18:00:00,83.2,75.2,30.01,NE,37,0.0,1.0,77,0.00,,,0.00,Wunderground v.1.15,2013-07-07 22:00:00,
2013-07-07 18:05:00,83.0,75.0,30.01,NE,37,0.0,1.0,77,0.00,,,0.00,Wunderground v.1.15,2013-07-07 22:05:00,
2013-07-07 18:10:00,82.8,74.5,30.01,NE,37,0.0,0.0,76,0.00,,,0.00,Wunderground v.1.15,2013-07-07 22:10:00,
2013-07-07 18:15:00,82.7,74.4,30.01,NE,37,0.0,1.0,76,0.00,,,0.00,Wunderground v.1.15,2013-07-07 22:15:00,
2013-07-07 18:20:00,82.7,74.8,30.01,NE,37,0.0,0.0,77,0.00,,,0.00,Wunderground v.1.15,2013-07-07 22:20:00,
2013-07-07 18:25:00,82.8,74.8,30.00,NE,37,0.0,0.0,77,0.00,,,0.00,Wunderground v.1.15,2013-07-07 22:25:00,
2013-07-07 18:30:00,82.9,75.3,30.01,NE,37,0.0,0.0,78,0.00,,,0.00,Wunderground v.1.15,2013-07-07 22:30:00,
2013-07-07 18:35:00,83.1,75.5,30.01,NE,37,0.0,0.0,78,0.00,,,0.00,Wunderground v.1.15,2013-07-07 22:35:00,
2013-07-07 18:40:00,83.3,75.7,30.01,NE,37,0.0,0.0,78,0.00,,,0.00,Wunderground v.1.15,2013-07-07 22:40:00,
2013-07-07 18:45:00,83.4,76.2,30.01,NE,37,0.0,0.0,79,0.00,,,0.00,Wunderground v.1.15,2013-07-07 22:45:00,
2013-07-07 18:50:00,83.6,76.4,30.01,NE,37,0.0,0.0,79,0.00,,,0.00,Wunderground v.1.15,2013-07-07 22:50:00,
2013-07-07 18:55:00,83.7,76.5,30.01,NE,37,0.0,0.0,79,0.00,,,0.00,Wunderground v.1.15,2013-07-07 22:55:00,
2013-07-07 19:00:00,83.8,76.6,30.01,NE,37,0.0,0.0,79,0.00,,,0.00,Wunderground v.1.15,2013-07-07 23:00:00,
2013-07-07 19:06:00,83.9,75.9,30.01,NE,42,0.0,2.0,77,0.00,,,0.00,Wunderground v.1.15,2013-07-07 23:06:00,
2013-07-07 19:11:00,84.2,75.8,30.02,East,80,0.0,1.0,76,0.00,,,0.00,Wunderground v.1.15,2013-07-07 23:11:00,
2013-07-07 19:16:00,84.6,76.2,30.02,East,79,0.0,1.0,76,0.00,,,0.00,Wunderground v.1.15,2013-07-07 23:16:00,
2013-07-07 19:21:00,84.9,76.1,30.02,East,79,0.0,0.0,75,0.00,,,0.00,Wunderground v.1.15,2013-07-07 23:21:00,
2013-07-07 19:26:00,85.0,76.2,30.01,ENE,78,0.0,0.0,75,0.00,,,0.00,Wunderground v.1.15,2013-07-07 23:26:00,
2013-07-07 19:31:00,85.1,75.5,30.01,East,93,0.0,1.0,73,0.00,,,0.00,Wunderground v.1.15,2013-07-07 23:31:00,
2013-07-07 19:36:00,85.2,75.6,30.01,East,93,0.0,1.0,73,0.00,,,0.00,Wunderground v.1.15,2013-07-07 23:36:00,
2013-07-07 19:41:00,85.3,75.7,30.01,East,93,0.0,0.0,73,0.00,,,0.00,Wunderground v.1.15,2013-07-07 23:41:00,
2013-07-07 19:46:00,85.3,75.7,30.02,East,93,0.0,1.0,73,0.00,,,0.00,Wunderground v.1.15,2013-07-07 23:46:00,
2013-07-07 19:51:00,85.2,75.1,30.02,East,93,0.0,1.0,72,0.00,,,0.00,Wunderground v.1.15,2013-07-07 23:51:00,
2013-07-07 19:56:00,85.1,75.1,30.02,East,93,0.0,1.0,72,0.00,,,0.00,Wunderground v.1.15,2013-07-07 23:56:00,
2013-07-07 20:01:00,85.0,75.0,30.03,East,93,0.0,0.0,72,0.00,,,0.00,Wunderground v.1.15,2013-07-08 00:01:00,
2013-07-07 20:06:00,85.0,75.0,30.03,East,93,0.0,0.0,72,0.00,,,0.00,Wunderground v.1.15,2013-07-08 00:06:00,
2013-07-07 20:11:00,84.9,75.3,30.03,East,93,0.0,0.0,73,0.00,,,0.00,Wunderground v.1.15,2013-07-08 00:11:00,
2013-07-07 20:16:00,84.8,75.2,30.03,East,93,0.0,0.0,73,0.00,,,0.00,Wunderground v.1.15,2013-07-08 00:16:00,
2013-07-07 20:21:00,84.7,75.5,30.03,East,93,0.0,0.0,74,0.00,,,0.00,Wunderground v.1.15,2013-07-08 00:21:00,
2013-07-07 20:26:00,84.6,75.4,30.04,East,93,0.0,0.0,74,0.00,,,0.00,Wunderground v.1.15,2013-07-08 00:26:00,
2013-07-07 20:31:00,84.5,75.3,30.05,East,93,0.0,0.0,74,0.00,,,0.00,Wunderground v.1.15,2013-07-08 00:31:00,
2013-07-07 20:36:00,84.3,75.5,30.04,East,93,0.0,0.0,75,0.00,,,0.00,Wunderground v.1.15,2013-07-08 00:36:00,
2013-07-07 20:41:00,84.2,76.2,30.04,East,93,0.0,0.0,77,0.00,,,0.00,Wunderground v.1.15,2013-07-08 00:41:00,
2013-07-07 20:46:00,84.1,76.5,30.05,East,93,0.0,0.0,78,0.00,,,0.00,Wunderground v.1.15,2013-07-08 00:46:00,
2013-07-07 20:51:00,83.9,76.3,30.05,East,93,0.0,0.0,78,0.00,,,0.00,Wunderground v.1.15,2013-07-08 00:51:00,
2013-07-07 20:56:00,83.8,76.2,30.05,East,93,0.0,0.0,78,0.00,,,0.00,Wunderground v.1.15,2013-07-08 00:56:00,
2013-07-07 21:01:00,83.6,76.0,30.05,East,93,0.0,0.0,78,0.00,,,0.00,Wunderground v.1.15,2013-07-08 01:01:00,
2013-07-07 21:06:00,83.5,75.9,30.06,East,93,0.0,0.0,78,0.00,,,0.00,Wunderground v.1.15,2013-07-08 01:06:00,
2013-07-07 21:11:00,83.6,75.6,30.06,East,93,0.0,0.0,77,0.00,,,0.00,Wunderground v.1.15,2013-07-08 01:11:00,
2013-07-07 21:16:00,83.8,75.4,30.05,East,93,0.0,1.0,76,0.00,,,0.00,Wunderground v.1.15,2013-07-08 01:16:00,
2013-07-07 21:21:00,84.0,75.2,30.05,East,93,0.0,0.0,75,0.00,,,0.00,Wunderground v.1.15,2013-07-08 01:21:00,
2013-07-07 21:26:00,84.0,75.2,30.06,East,93,0.0,1.0,75,0.00,,,0.00,Wunderground v.1.15,2013-07-08 01:26:00,
2013-07-07 21:31:00,84.0,75.2,30.06,East,93,0.0,0.0,75,0.00,,,0.00,Wunderground v.1.15,2013-07-08 01:31:00,
2013-07-07 21:36:00,83.9,75.5,30.06,East,93,0.0,1.0,76,0.00,,,0.00,Wunderground v.1.15,2013-07-08 01:36:00,
2013-07-07 21:41:00,83.8,75.4,30.06,East,93,0.0,1.0,76,0.00,,,0.00,Wunderground v.1.15,2013-07-08 01:41:00,
2013-07-07 21:46:00,83.6,75.2,30.06,East,93,0.0,1.0,76,0.00,,,0.00,Wunderground v.1.15,2013-07-08 01:46:00,
2013-07-07 21:51:00,83.5,75.1,30.06,East,93,0.0,1.0,76,0.00,,,0.00,Wunderground v.1.15,2013-07-08 01:51:00,
2013-07-07 21:56:00,83.3,75.3,30.07,East,93,0.0,3.0,77,0.00,,,0.00,Wunderground v.1.15,2013-07-08 01:56:00,
2013-07-07 22:02:00,83.2,75.2,30.08,East,93,0.0,1.0,77,0.00,,,0.00,Wunderground v.1.15,2013-07-08 02:02:00,
2013-07-07 22:07:00,83.1,75.1,30.08,East,93,0.0,1.0,77,0.00,,,0.00,Wunderground v.1.15,2013-07-08 02:07:00,
2013-07-07 22:12:00,83.0,75.4,30.08,East,93,0.0,0.0,78,0.00,,,0.00,Wunderground v.1.15,2013-07-08 02:12:00,
2013-07-07 22:17:00,82.9,75.3,30.08,East,93,0.0,1.0,78,0.00,,,0.00,Wunderground v.1.15,2013-07-08 02:17:00,
2013-07-07 22:22:00,82.8,75.2,30.09,East,93,0.0,0.0,78,0.00,,,0.00,Wunderground v.1.15,2013-07-08 02:22:00,
2013-07-07 22:27:00,82.7,75.1,30.09,East,93,0.0,0.0,78,0.00,,,0.00,Wunderground v.1.15,2013-07-08 02:27:00,
2013-07-07 22:32:00,82.6,75.4,30.09,East,93,0.0,0.0,79,0.00,,,0.00,Wunderground v.1.15,2013-07-08 02:32:00,
2013-07-07 22:37:00,82.5,75.3,30.09,East,93,0.0,1.0,79,0.00,,,0.00,Wunderground v.1.15,2013-07-08 02:37:00,
2013-07-07 22:42:00,82.4,75.2,30.09,East,93,0.0,1.0,79,0.00,,,0.00,Wunderground v.1.15,2013-07-08 02:42:00,
2013-07-07 22:47:00,82.4,75.2,30.09,ENE,76,0.0,3.0,79,0.00,,,0.00,Wunderground v.1.15,2013-07-08 02:47:00,
2013-07-07 22:52:00,82.2,75.0,30.10,ENE,76,0.0,0.0,79,0.00,,,0.00,Wunderground v.1.15,2013-07-08 02:52:00,
2013-07-07 22:57:00,82.1,75.3,30.10,East,92,0.0,1.0,80,0.00,,,0.00,Wunderground v.1.15,2013-07-08 02:57:00,
2013-07-07 23:02:00,82.1,75.3,30.10,East,92,0.0,0.0,80,0.00,,,0.00,Wunderground v.1.15,2013-07-08 03:02:00,
2013-07-07 23:07:00,81.9,75.1,30.10,East,92,0.0,0.0,80,0.00,,,0.00,Wunderground v.1.15,2013-07-08 03:07:00,
2013-07-07 23:12:00,81.9,75.1,30.10,East,92,0.0,0.0,80,0.00,,,0.00,Wunderground v.1.15,2013-07-08 03:12:00,
2013-07-07 23:17:00,81.8,75.4,30.11,East,92,0.0,1.0,81,0.00,,,0.00,Wunderground v.1.15,2013-07-08 03:17:00,
2013-07-07 23:22:00,81.6,75.2,30.11,East,92,0.0,0.0,81,0.00,,,0.00,Wunderground v.1.15,2013-07-08 03:22:00,
2013-07-07 23:30:00,81.5,75.1,30.12,East,92,0.0,0.0,81,0.00,,,0.00,Wunderground v.1.15,2013-07-08 03:30:00,
2013-07-07 23:36:00,81.4,75.0,30.12,East,92,0.0,0.0,81,0.00,,,0.00,Wunderground v.1.15,2013-07-08 03:36:00,
2013-07-07 23:41:00,81.2,75.2,30.12,East,92,0.0,0.0,82,0.00,,,0.00,Wunderground v.1.15,2013-07-08 03:41:00,
2013-07-07 23:45:00,81.1,75.1,30.11,East,92,0.0,0.0,82,0.00,,,0.00,Wunderground v.1.15,2013-07-08 03:45:00,
2013-07-07 23:50:00,81.0,75.0,30.11,East,92,0.0,0.0,82,0.00,,,0.00,Wunderground v.1.15,2013-07-08 03:50:00,
2013-07-07 23:55:00,80.9,74.9,30.11,East,92,0.0,0.0,82,0.00,,,0.00,Wunderground v.1.15,2013-07-08 03:55:00,